Wind_Speed
7 7 6 5 4 3 2 2 2 1 1 2 1 1 1 2 2 1 2 2 3 3 4 3 3 3 4 4 4 5 6 6 5 5 5 5 5 5 5 5 5 5 5
8 7 7 6 4 3 3 2 2 1 2 2 2 2 1 2 1 1 2 2 3 3 4 4 4 3 4 3 4 5 6 6 6 6 6 6 6 7 6 6 7 7 6
8 8 7 6 5 4 3 3 3 2 2 3 3 2 1 2 1 1 1 2 2 2 3 4 4 4 4 4 4 5 6 7 7 7 7 7 7 8 8 8 8 8 8
9 9 8 7 6 5 4 4 3 3 3 3 3 2 2 1 1 1 1 1 1 2 3 4 4 5 5 4 5 5 6 6 6 7 8 9 9 9 9 9 9 10 10
10 10 9 8 7 6 5 5 4 3 3 3 3 3 2 1 1 0 0 0 1 2 2 2 3 4 4 4 5 5 6 6 7 7 8 9 10 11 11 10 11 11 11
11 10 9 8 8 7 6 6 5 4 4 4 3 3 2 1 0 0 0 0 1 1 1 2 2 3 4 4 4 5 6 7 7 8 8 9 9 10 11 11 11 11 11
12 11 11 10 8 8 7 6 6 5 5 4 4 4 3 2 2 2 1 1 1 1 1 2 2 3 3 4 4 5 6 7 8 8 8 9 10 10 11 12 12 12 12
12 12 12 11 9 8 7 7 7 7 6 6 5 4 4 4 4 3 2 2 2 2 2 2 3 4 5 5 5 6 6 7 8 9 10 10 11 11 12 12 13 13 13
12 12 12 12 11 9 9 8 8 8 7 7 6 6 6 6 5 5 4 3 3 3 3 4 4 5 5 6 7 7 8 8 9 9 10 11 11 12 12 13 13 14 14
12 12 12 12 11 11 10 9 9 9 9 8 8 8 8 7 7 6 6 5 5 5 5 5 5 6 6 7 8 8 9 10 10 11 11 12 12 12 13 14 14 15 15
12 13 13 13 12 11 11 11 10 10 10 10 9 9 9 9 9 9 8 8 7 7 7 8 8 8 8 9 9 10 10 11 12 12 12 13 13 14 14 15 16 16 16
12 14 14 14 13 13 12 12 11 11 11 11 11 10 11 11 11 11 11 10 10 9 10 10 10 10 11 11 12 12 12 13 13 14 14 15 15 16 16 17 17 18 18
13 14 14 14 14 14 13 13 13 13 13 13 13 13 13 13 13 13 13 13 13 12 12 12 13 13 14 14 15 15 15 15 15 16 17 17 18 19 19 20 20 21 21
12 13 14 14 14 14 14 14 14 14 14 14 14 14 14 14 14 15 15 15 15 15 15 15 15 16 16 17 18 17 18 18 19 20 21 21 21 22 22 23 23 24 25
12 13 14 14 15 14 14 14 15 15 15 15 15 16 16 16 16 17 17 17 17 18 18 18 18 19 19 20 20 20 21 22 22 23 24 24 24 25 25 26 27 27 28
12 13 14 15 15 15 15 15 15 16 16 16 17 18 18 17 18 19 19 20 20 20 20 21 21 21 21 21 22 23 24 25 25 25 26 26 27 27 28 29 30 30 31
12 13 14 14 14 15 16 17 18 17 17 17 18 19 19 19 19 20 21 21 22 22 22 23 23 23 23 24 25 26 27 27 28 28 29 29 30 30 31 32 32 33 34
11 13 14 14 15 16 17 18 18 19 19 19 20 20 20 21 21 22 22 23 23 24 24 24 25 26 26 27 27 28 28 29 30 30 31 31 32 33 34 35 35 35 36
11 12 14 15 16 16 17 18 19 20 20 21 21 21 22 23 23 24 25 26 26 26 27 27 27 28 28 28 29 30 31 31 32 32 33 34 34 35 36 36 37 38 39
12 13 13 14 16 17 17 18 19 20 20 21 21 22 23 24 24 26 26 27 27 28 28 29 30 30 31 31 31 33 33 34 35 35 35 35 36 37 38 40 40 41 41
13 13 13 14 16 17 18 18 18 19 20 21 22 23 24 24 24 25 26 27 28 28 28 29 30 31 32 33 33 34 35 35 35 36 37 38 38 39 40 41 42 43 44
13 14 14 15 16 16 17 18 19 19 21 21 23 23 24 25 26 27 28 29 30 30 30 31 31 32 32 34 34 34 35 36 36 37 39 40 40 41 42 43 43 44 46
14 15 16 16 17 17 18 19 20 20 21 22 23 25 25 26 28 29 30 30 31 31 32 32 32 32 33 34 35 35 36 36 37 38 40 41 43 43 44 45 46 46 48
14 15 17 17 18 18 19 20 21 21 22 22 23 24 26 27 27 28 30 30 31 31 32 33 33 33 35 36 36 37 37 38 39 40 41 42 44 45 46 47 48 48 50
16 16 18 19 20 20 21 21 21 21 22 23 24 26 27 27 27 29 30 30 30 31 32 33 33 33 34 35 36 36 37 39 40 41 42 44 45 46 48 49 49 50 51
18 18 19 20 20 21 21 22 22 23 23 24 25 26 26 27 28 29 30 30 31 31 31 32 32 33 34 36 36 37 38 40 41 43 44 45 46 48 49 50 51 52 53
Wind_Direction
224 221 220 217 222 229 237 245 236 219 193 174 187 209 220 211 228 222 216 215 211 208 209 206 202 201 203 205 212 216 218 217 223 230 235 235 238 239 244 246 248 252 257
217 214 213 211 209 213 221 221 210 196 164 159 173 185 209 203 220 213 219 216 212 212 212 210 208 209 210 216 222 224 225 226 231 233 239 243 244 247 250 251 254 256 259
208 205 210 206 200 200 204 199 191 178 163 158 157 165 171 173 197 196 194 192 202 212 219 220 219 219 220 227 234 233 230 231 237 241 243 245 246 248 251 254 256 257 260
203 201 204 199 196 196 195 194 190 183 165 158 158 160 160 184 198 215 194 183 200 219 226 229 231 229 233 236 237 234 234 237 242 246 249 250 251 254 255 257 259 260 261
201 198 199 198 197 197 197 193 188 176 166 165 164 158 160 172 168 178 164 182 226 238 241 236 233 230 236 243 245 246 246 248 250 251 254 256 256 257 256 257 260 261 261
203 199 198 201 201 201 201 196 194 191 182 179 176 174 182 204 205 277 271 276 268 266 258 244 231 233 238 247 255 257 255 255 255 257 259 259 259 259 256 256 259 262 262
205 203 203 205 206 206 207 205 204 202 200 198 197 197 201 215 232 249 257 259 274 285 281 262 246 247 252 258 265 264 263 260 259 261 262 262 263 263 260 259 261 263 263
207 207 208 208 209 211 212 212 216 217 215 212 214 220 222 223 233 241 246 247 256 274 275 273 265 266 265 269 272 275 278 275 268 266 267 268 268 265 263 263 264 265 266
205 208 211 211 214 216 217 217 219 223 224 225 228 233 236 236 239 238 239 243 251 263 272 274 273 273 274 275 277 280 282 282 279 274 272 272 273 271 268 268 268 268 268
211 211 211 212 215 217 220 223 224 225 229 232 235 238 240 242 242 239 242 247 254 257 269 277 276 280 283 282 279 281 283 283 281 277 275 274 274 273 271 271 270 271 271
215 217 218 220 219 222 227 232 233 231 234 238 242 244 243 244 244 245 246 250 258 262 266 271 275 282 284 283 283 282 284 282 280 279 277 276 275 274 273 272 272 272 273
219 221 224 226 226 232 237 239 239 237 239 242 245 247 249 248 247 247 251 258 264 267 268 272 274 278 280 280 281 281 280 280 280 280 279 278 276 274 273 273 273 273 273
221 224 228 230 233 238 240 242 242 243 245 247 248 252 254 253 252 251 255 261 265 268 270 274 276 278 280 281 280 280 280 280 280 280 279 278 277 276 274 274 273 273 273
229 229 230 233 238 241 243 244 245 246 248 249 250 254 258 261 258 258 260 263 265 269 271 273 276 278 280 281 281 281 280 279 279 279 278 278 278 277 276 275 275 274 273
231 232 234 237 241 244 245 247 249 250 252 254 254 256 260 262 261 263 264 265 268 270 272 273 275 277 279 281 281 280 278 278 277 279 279 278 277 277 276 276 276 275 275
233 235 238 243 245 247 248 250 252 253 255 258 259 259 260 263 265 267 267 269 269 271 273 275 276 277 279 279 278 278 279 279 279 278 278 276 276 277 277 277 277 276 276
238 237 239 244 248 250 251 253 253 256 258 261 263 264 262 263 267 269 270 272 272 272 274 276 277 277 277 278 277 278 279 279 279 277 277 275 277 278 278 279 279 278 277
243 242 244 247 252 255 256 256 257 261 263 263 266 267 265 266 269 272 271 273 273 273 274 276 277 278 278 279 279 279 280 279 280 280 278 278 278 278 278 279 279 278 277
250 251 252 252 257 260 260 261 262 263 263 265 267 267 266 267 269 270 271 273 274 275 276 277 278 278 279 281 281 280 280 280 280 280 279 278 278 279 278 278 279 278 277
253 254 257 259 261 262 262 265 266 263 263 265 267 268 268 269 272 273 273 276 277 277 277 278 278 279 280 280 281 282 281 280 280 279 278 278 279 280 279 279 278 278 279
260 259 258 260 263 265 266 267 269 266 264 265 267 270 271 271 274 276 276 277 279 279 280 281 282 282 282 282 283 283 282 282 281 280 280 281 280 280 280 280 280 279 278
266 262 261 263 265 267 267 267 269 268 268 269 271 273 274 274 276 276 277 278 279 280 281 283 284 284 284 284 284 283 284 283 282 282 282 282 282 282 281 282 283 282 281
271 270 268 267 267 270 270 272 272 272 272 271 271 273 275 276 277 279 279 280 280 280 282 283 283 284 284 285 284 283 283 283 282 283 283 284 284 284 285 284 283 283 282
277 278 274 272 272 273 274 275 276 273 274 277 277 278 278 278 278 281 282 282 283 282 283 283 283 283 284 284 284 284 284 284 283 284 285 285 285 286 286 285 284 284 283
280 281 279 278 276 276 277 278 278 278 280 283 283 282 281 281 282 283 284 284 284 284 283 284 284 285 286 286 285 285 285 285 286 286 287 287 286 287 287 286 286 285 285
281 281 281 280 278 277 278 279 280 282 283 284 284 284 283 284 285 285 285 285 285 285 286 286 286 287 287 287 288 288 289 288 288 288 288 287 287 287 287 287 287 287 286
Height
5895 5896 5897 5897 5897 5898 5898 5898 5898 5898 5898 5898 5898 5897 5897 5898 5898 5898 5898 5898 5897 5898 5898 5898 5899 5899 5899 5899 5899 5900 5900 5901 5901 5901 5901 5901 5902 5902 5902 5902 5902 5902 5902
5893 5895 5896 5896 5897 5897 5897 5897 5898 5898 5898 5898 5898 5898 5898 5898 5898 5898 5898 5897 5897 5897 5898 5898 5898 5898 5899 5899 5899 5899 5899 5900 5900 5900 5900 5900 5900 5901 5901 5901 5901 5901 5900
5892 5894 5895 5896 5896 5897 5897 5897 5898 5898 5898 5898 5898 5898 5898 5898 5898 5898 5897 5897 5897 5897 5897 5897 5898 5898 5898 5898 5898 5898 5898 5899 5899 5899 5899 5899 5899 5899 5899 5899 5899 5899 5899
5891 5893 5894 5895 5896 5896 5897 5897 5898 5898 5898 5898 5899 5898 5898 5898 5898 5898 5898 5897 5897 5897 5897 5897 5897 5897 5897 5897 5897 5897 5897 5897 5898 5898 5898 5898 5897 5897 5898 5898 5897 5897 5897
5890 5892 5893 5894 5895 5896 5896 5897 5898 5898 5898 5898 5899 5899 5899 5898 5898 5898 5898 5897 5897 5897 5897 5897 5897 5897 5897 5896 5896 5896 5896 5896 5896 5896 5896 5896 5896 5895 5895 5895 5895 5895 5895
5889 5890 5892 5893 5894 5895 5896 5896 5897 5897 5898 5898 5899 5899 5899 5899 5898 5898 5898 5897 5897 5897 5897 5896 5896 5896 5896 5896 5895 5895 5895 5895 5895 5894 5894 5894 5894 5893 5893 5893 5893 5893 5893
5887 5889 5890 5892 5893 5894 5895 5896 5896 5897 5897 5898 5898 5899 5899 5899 5898 5898 5898 5897 5897 5897 5896 5896 5896 5895 5895 5895 5895 5894 5894 5893 5893 5893 5892 5892 5892 5892 5891 5891 5891 5890 5890
5885 5887 5889 5890 5892 5893 5893 5894 5895 5896 5897 5897 5898 5898 5898 5899 5898 5898 5897 5897 5897 5896 5896 5895 5895 5895 5894 5894 5894 5893 5893 5892 5891 5891 5891 5890 5890 5890 5889 5889 5888 5888 5888
5884 5885 5887 5888 5890 5891 5892 5893 5894 5895 5895 5896 5897 5897 5897 5897 5897 5897 5897 5897 5896 5896 5895 5895 5894 5894 5893 5892 5892 5892 5891 5890 5890 5889 5889 5888 5888 5887 5887 5886 5886 5885 5885
5882 5884 5885 5887 5888 5889 5890 5891 5892 5893 5894 5895 5895 5896 5896 5896 5896 5896 5896 5896 5895 5895 5894 5894 5893 5892 5892 5891 5890 5890 5889 5888 5888 5887 5886 5886 5885 5885 5884 5883 5883 5882 5881
5881 5882 5883 5885 5886 5887 5888 5889 5890 5891 5892 5893 5893 5894 5894 5894 5895 5895 5895 5894 5894 5894 5893 5892 5891 5890 5890 5889 5888 5888 5887 5886 5885 5884 5884 5883 5882 5881 5881 5880 5879 5878 5877
5879 5880 5881 5883 5884 5885 5886 5887 5888 5889 5890 5890 5891 5891 5892 5892 5893 5893 5892 5892 5892 5892 5891 5890 5889 5888 5887 5887 5886 5885 5884 5883 5882 5881 5880 5879 5878 5877 5877 5876 5875 5874 5873
5877 5878 5879 5881 5882 5883 5884 5885 5885 5886 5887 5887 5888 5888 5889 5889 5890 5890 5890 5889 5889 5889 5888 5888 5886 5886 5885 5884 5883 5882 5881 5880 5879 5877 5876 5875 5874 5873 5872 5871 5870 5869 5868
5875 5876 5877 5878 5879 5880 5881 5882 5882 5883 5884 5884 5885 5885 5885 5885 5886 5886 5886 5886 5886 5886 5885 5884 5883 5882 5881 5880 5879 5878 5876 5875 5874 5873 5871 5870 5869 5868 5866 5865 5864 5863 5862
5873 5873 5874 5875 5876 5877 5877 5878 5879 5880 5880 5880 5881 5881 5881 5881 5881 5882 5882 5882 5882 5881 5880 5880 5879 5877 5876 5875 5874 5873 5871 5870 5869 5867 5866 5864 5863 5861 5860 5859 5857 5856 5855
5870 5871 5872 5872 5873 5873 5874 5875 5875 5876 5876 5876 5876 5877 5877 5877 5877 5877 5877 5877 5876 5876 5875 5874 5873 5872 5871 5869 5868 5867 5865 5864 5862 5861 5859 5857 5856 5854 5853 5851 5850 5848 5847
5867 5868 5868 5869 5869 5870 5870 5871 5871 5871 5872 5872 5872 5872 5872 5872 5872 5872 5871 5871 5870 5870 5869 5868 5867 5866 5865 5863 5862 5860 5858 5857 5855 5853 5851 5850 5848 5847 5845 5843 5841 5840 5838
5864 5864 5865 5865 5865 5865 5866 5866 5867 5867 5867 5867 5867 5867 5867 5867 5866 5866 5865 5865 5864 5863 5862 5861 5860 5859 5858 5856 5854 5853 5851 5849 5847 5845 5843 5841 5839 5838 5836 5834 5832 5830 5828
5861 5861 5861 5862 5861 5861 5862 5862 5862 5861 5862 5861 5861 5861 5861 5861 5860 5860 5859 5859 5857 5856 5855 5854 5853 5851 5850 5848 5847 5845 5843 5840 5838 5836 5834 5832 5830 5828 5826 5824 5822 5819 5817
5858 5858 5858 5858 5858 5857 5857 5857 5856 5856 5856 5856 5856 5855 5855 5855 5854 5853 5852 5852 5850 5849 5847 5846 5845 5843 5842 5840 5838 5836 5834 5831 5829 5827 5825 5823 5820 5818 5815 5813 5811 5808 5806
5854 5854 5854 5854 5853 5853 5853 5852 5852 5851 5851 5851 5850 5850 5849 5848 5848 5847 5846 5844 5843 5841 5840 5838 5836 5834 5833 5831 5828 5826 5824 5821 5819 5817 5815 5813 5810 5807 5804 5802 5799 5797 5794
5850 5850 5850 5849 5849 5848 5848 5847 5846 5846 5846 5845 5844 5843 5843 5842 5841 5840 5838 5837 5835 5833 5832 5830 5828 5826 5824 5821 5819 5816 5814 5812 5809 5807 5804 5802 5799 5796 5793 5791 5788 5785 5782
5846 5846 5845 5845 5844 5843 5843 5842 5841 5840 5839 5839 5838 5837 5836 5835 5834 5832 5830 5828 5827 5825 5823 5821 5819 5817 5814 5812 5809 5807 5804 5802 5799 5796 5793 5790 5787 5784 5781 5778 5774 5771 5768
5842 5841 5840 5839 5839 5838 5837 5836 5835 5834 5833 5832 5831 5830 5829 5827 5826 5824 5822 5820 5819 5816 5814 5812 5810 5807 5805 5802 5799 5797 5794 5791 5788 5785 5782 5779 5775 5771 5767 5764 5760 5757 5753
5837 5836 5835 5834 5833 5832 5831 5830 5829 5828 5827 5826 5824 5823 5821 5820 5818 5816 5814 5812 5810 5808 5805 5803 5800 5797 5795 5792 5789 5787 5784 5780 5777 5774 5770 5766 5762 5758 5754 5750 5746 5742 5738
5831 5831 5830 5829 5828 5826 5825 5824 5823 5821 5820 5819 5817 5815 5814 5812 5810 5808 5806 5803 5801 5799 5796 5793 5790 5788 5785 5782 5779 5776 5772 5769 5765 5762 5758 5754 5749 5745 5740 5735 5731 5727 5722